CW4232 Weather Reports


Display with metric or nautical units.
time (UTC)temp
F
wind
direction
speed
MPH
gust
MPH
rain 1hr
in
rain 24hr
in
rain mn
in
humidity
%
barometer
mb
20260507203047 80 329 2.0 17.0 0.00 0.00 0.00 18 1014.6
20260507201540 79 207 6.0 15.0 0.00 0.00 0.00 18 1014.8
20260507200049 80 156 4.0 17.0 0.00 0.00 0.00 20 1014.9
20260507194614 78 144 5.0 12.0 0.00 0.00 0.00 19 1015.2
20260507193044 78 217 4.0 19.0 0.00 0.00 0.00 19 1015.3
20260507191541 78 109 5.0 16.0 0.00 0.00 0.00 19 1015.5
20260507190049 78 202 7.0 17.0 0.00 0.00 0.00 19 1015.9
20260507184540 77 131 9.0 23.0 0.00 0.00 0.00 20 1016.0
20260507183048 77 145 12.0 20.0 0.00 0.00 0.00 20 1016.1
20260507181554 77 144 10.0 21.0 0.00 0.00 0.00 21 1016.3
20260507180047 75 254 2.0 14.0 0.00 0.00 0.00 21 1016.2
20260507174553 73 303 6.0 14.0 0.00 0.00 0.00 23 1016.2
20260507173119 73 254 3.0 12.0 0.00 0.00 0.00 25 1016.5
20260507171554 73 226 4.0 11.0 0.00 0.00 0.00 25 1016.6
20260507170107 72 88 2.0 9.0 0.00 0.00 0.00 26 1016.8
20260507164555 71 323 2.0 8.0 0.00 0.00 0.00 26 1017.0
20260507163042 70 291 3.0 7.0 0.00 0.00 0.00 27 1017.1
20260507161556 69 238 4.0 9.0 0.00 0.00 0.00 27 1017.2
20260507160041 67 266 2.0 9.0 0.00 0.00 0.00 29 1017.4
20260507154542 66 217 4.0 9.0 0.00 0.00 0.00 30 1017.6
20260507153056 65 238 3.0 9.0 0.00 0.00 0.00 31 1017.7
20260507151546 65 269 3.0 8.0 0.00 0.00 0.00 32 1017.6
20260507150047 65 342 2.0 6.0 0.00 0.00 0.00 32 1017.8
20260507144546 64 55 3.0 9.0 0.00 0.00 0.00 33 1017.6
20260507143043 62 41 4.0 10.0 0.00 0.00 0.00 36 1017.6
20260507141607 59 67 5.0 9.0 0.00 0.00 0.00 41 1017.7
20260507140049 52 54 2.0 5.0 0.00 0.00 0.00 50 1017.8
20260507134545 49 0 0.0 4.0 0.00 0.00 0.00 52 1017.8
20260507133043 49 32 1.0 5.0 0.00 0.00 0.00 53 1017.8
20260507131551 47 0 0.0 1.0 0.00 0.00 0.00 55 1017.7
20260507130050 47 0 0.0 0.0 0.00 0.00 0.00 54 1017.5
20260507124540 46 195 1.0 3.0 0.00 0.00 0.00 55 1017.5
20260507123048 45 188 1.0 3.0 0.00 0.00 0.00 56 1017.3
20260507121546 45 290 0.0 0.0 0.00 0.00 0.00 57 1017.2
20260507120053 45 0 0.0 2.0 0.00 0.00 0.00 57 1017.1
20260507114544 45 0 0.0 0.0 0.00 0.00 0.00 56 1017.1
20260507113052 45 0 0.0 2.0 0.00 0.00 0.00 55 1017.3
20260507111541 45 302 1.0 3.0 0.00 0.00 0.00 55 1017.3
20260507110047 46 0 0.0 2.0 0.00 0.00 0.00 53 1017.4
20260507104546 48 316 0.0 1.0 0.00 0.00 0.00 51 1017.2
20260507103043 48 0 0.0 0.0 0.00 0.00 0.00 50 1017.2
20260507101542 48 0 0.0 0.0 0.00 0.00 0.00 50 1017.2
20260507100043 49 0 1.0 4.0 0.00 0.00 0.00 49 1017.3
20260507094544 50 0 0.0 2.0 0.00 0.00 0.00 47 1017.4
20260507093048 52 319 2.0 4.0 0.00 0.00 0.00 45 1017.4
20260507091546 52 0 0.0 7.0 0.00 0.00 0.00 45 1017.4
20260507090045 52 51 3.0 4.0 0.00 0.00 0.00 45 1017.5
20260507084541 52 346 0.0 2.0 0.00 0.00 0.00 45 1017.7
20260507083040 53 309 0.0 3.0 0.00 0.00 0.00 43 1017.8
20260507081545 55 5 0.0 4.0 0.00 0.00 0.00 41 1017.9
20260507080047 57 331 1.0 4.0 0.00 0.00 0.00 38 1018.0
20260507074549 57 66 4.0 9.0 0.00 0.00 0.00 38 1017.8
20260507073102 56 26 2.0 6.0 0.00 0.00 0.00 39 1018.0
20260507071542 56 40 2.0 5.0 0.00 0.00 0.00 39 1017.9
20260507070044 57 0 0.0 4.0 0.00 0.00 0.00 38 1018.1
20260507064552 58 57 3.0 6.0 0.00 0.00 0.00 36 1018.0
20260507063047 59 100 1.0 5.0 0.00 0.00 0.00 36 1018.1
20260507061541 59 55 3.0 6.0 0.00 0.00 0.00 35 1018.1
20260507060048 60 53 3.0 8.0 0.00 0.00 0.00 34 1018.0
20260507054546 62 71 3.0 9.0 0.00 0.00 0.00 32 1018.1
20260507053045 63 90 7.0 11.0 0.00 0.00 0.00 30 1017.9
20260507051542 64 62 3.0 9.0 0.00 0.00 0.00 30 1017.7
20260507050042 64 71 6.0 11.0 0.00 0.00 0.00 29 1017.5
20260507044541 64 101 8.0 11.0 0.00 0.00 0.00 29 1017.5
20260507043047 65 84 5.0 10.0 0.00 0.00 0.00 29 1017.3
20260507041546 65 78 5.0 11.0 0.00 0.00 0.00 28 1017.1
20260507040040 65 78 5.0 10.0 0.00 0.00 0.00 29 1016.9
20260507034549 65 53 7.0 14.0 0.00 0.00 0.00 29 1016.8
20260507033100 66 71 5.0 13.0 0.00 0.00 0.00 29 1016.8
20260507031546 66 55 6.0 13.0 0.00 0.00 0.00 29 1016.7
20260507030041 66 57 7.0 12.0 0.00 0.00 0.00 28 1016.5
20260507024551 67 34 6.0 12.0 0.00 0.00 0.00 28 1016.5
20260507023047 67 56 4.0 10.0 0.00 0.00 0.00 28 1016.3
20260507021541 69 34 6.0 10.0 0.00 0.00 0.00 27 1016.2
20260507020044 71 36 3.0 10.0 0.00 0.00 0.00 25 1015.9
20260507014552 73 319 3.0 8.0 0.00 0.00 0.00 23 1015.7
20260507013103 74 295 3.0 8.0 0.00 0.00 0.00 21 1015.7
20260507011550 74 317 0.0 4.0 0.00 0.00 0.00 19 1015.6
20260507010053 75 317 1.0 7.0 0.00 0.00 0.00 19 1015.5
20260507004547 75 317 2.0 10.0 0.00 0.00 0.00 18 1015.6
20260507003044 75 242 8.0 14.0 0.00 0.00 0.00 18 1015.5
20260507001607 75 0 1.0 9.0 0.00 0.00 0.00 18 1015.4
20260507000051 75 283 6.0 11.0 0.00 0.00 0.00 18 1015.4
20260506234557 75 283 2.0 8.0 0.00 0.00 0.00 18 1015.4
20260506233050 74 0 1.0 10.0 0.00 0.00 0.00 20 1015.4
20260506231549 74 248 5.0 12.0 0.00 0.00 0.00 20 1015.6
20260506230045 74 26 2.0 12.0 0.00 0.00 0.00 21 1015.5
20260506224600 73 215 4.0 12.0 0.00 0.00 0.00 21 1015.7
20260506223049 75 344 1.0 5.0 0.00 0.00 0.00 22 1015.7
20260506221550 74 279 8.0 14.0 0.00 0.00 0.00 23 1015.8
20260506220046 73 263 7.0 14.0 0.00 0.00 0.00 24 1016.2
20260506214549 73 0 5.0 17.0 0.00 0.00 0.00 24 1016.3
20260506213044 73 300 2.0 12.0 0.00 0.00 0.00 25 1016.5
20260506211552 72 252 3.0 12.0 0.00 0.00 0.00 25 1016.6
20260506210041 72 290 3.0 10.0 0.00 0.00 0.00 24 1016.6
20260506204548 72 281 8.0 14.0 0.00 0.00 0.00 24 1016.8